Home   Weather   Oklahoma City   Past weeks

Flag for USA Past Weather in Oklahoma City, Oklahoma, USA — Yesterday and Last 2 Weeks

Now
81 °F

Sunny.


Feels Like: 85 °F
Forecast: 73 / 97 °F
Wind: 13 mph from South

Location: Will Rogers World Airport

Current Time: Jul 25, 2017 at 9:59:33 am

Latest Report: Jul 25, 2017 at 8:52 am


Visibility: 10 mi

Pressure: 30.02 "Hg

Humidity: 72%

Dew Point: 71 °F

Location of Oklahoma CityLocation

Past Weather in Oklahoma City — Graph

°F

Oklahoma City Temperature Yesterday

Maximum temperature yesterday: 93 °F (at 3:52 pm)
Minimum temperature yesterday: 69 °F (at 6:52 am)
Average temperature yesterday: 82 °F

High & Low Weather Summary for the Past Weeks

 TemperatureHumidityPressure
High103 °F (Jul 22, 3:52 pm)97% (Jul 17, 6:52 am)30.09 "Hg (Jul 17, 6:52 am)
Low69 °F (Jul 24, 6:52 am)26% (Jul 21, 3:52 pm)29.77 "Hg (Jul 22, 6:52 pm)
Average84 °F61%29.95 "Hg
* Reported Jul 10 7:52 am — Jul 25 7:52 am, Oklahoma City. Weather by CustomWeather, © 2017

Note: Actual official high and low records may vary slightly from our data, if they occured in-between our weather recording intervals... More about our weather records

Advertising

Oklahoma City Weather History for the Previous 24 Hours

Scroll right to see more
 ConditionsComfort  
Time TempWeatherWind HumidityBarometerVisibility
7:52 am
Tue, Jul 25
75 °FPassing clouds.10 mph90%30.03 "Hg10 mi
6:52 am73 °FPassing clouds.7 mph94%30.01 "Hg10 mi
5:52 am73 °FClear.7 mph94%30.00 "Hg10 mi
4:52 am73 °FClear.6 mph90%29.98 "Hg10 mi
3:52 am74 °FClear.7 mph88%29.98 "Hg10 mi
2:52 am73 °FClear.6 mph90%29.98 "Hg10 mi
1:52 am75 °FPassing clouds.6 mph85%29.98 "Hg10 mi
12:52 am75 °FPassing clouds.7 mph85%29.97 "Hg10 mi
11:52 pm
Mon, Jul 24
76 °FPassing clouds.7 mph80%29.96 "Hg10 mi
10:52 pm79 °FPassing clouds.7 mph72%29.94 "Hg10 mi
9:52 pm79 °FPassing clouds.7 mph67%29.93 "Hg10 mi
8:52 pm83 °FPassing clouds.8 mph59%29.92 "Hg10 mi
7:52 pm88 °FPassing clouds.12 mph52%29.91 "Hg10 mi
6:52 pm91 °FPassing clouds.9 mph44%29.90 "Hg10 mi
5:52 pm91 °FScattered clouds.9 mph44%29.89 "Hg10 mi
4:52 pm93 °FScattered clouds.8 mph42%29.90 "Hg10 mi
3:52 pm93 °FScattered clouds.6 mph41%29.91 "Hg10 mi
2:52 pm92 °FScattered clouds.10 mph44%29.92 "Hg10 mi
1:52 pm92 °FScattered clouds.14 mph44%29.93 "Hg10 mi
12:52 pm90 °FScattered clouds.10 mph48%29.94 "Hg10 mi
11:52 am89 °FPassing clouds.N/A48%29.95 "Hg10 mi
10:52 am87 °FSunny.6 mph51%29.95 "Hg10 mi
9:52 am82 °FSunny.5 mph63%29.95 "Hg10 mi
Weather by CustomWeather, © 2017

See weather overviewHow to use our weather pages